Printer-friendly version

IAU Minor Planet Center

Minor Planet Center

MPEC 2007-C66 : 2007 CC27

The following Minor Planet Electronic Circular may be linked-to from your own Web pages, but must not otherwise be redistributed electronically.


Read MPEC 2007-C65 Read MPEC 2007-C67


M.P.E.C. 2007-C66                                Issued 2007 Feb. 14, 17:13 UT

     The Minor Planet Electronic Circulars contain information on unusual
         minor planets and routine data on comets.  They are published
   on behalf of Commission 20 of the International Astronomical Union by the
          Minor Planet Center, Smithsonian Astrophysical Observatory,
                          Cambridge, MA 02138, U.S.A.

             Prepared using the Tamkin Foundation Computer Network

                              MPC@CFA.HARVARD.EDU
          URL http://cfa-www.harvard.edu/iau/mpc.html  ISSN 1523-6714

                                   2007 CC27

Observations:
     K07C27C* C2007 02 13.36193 11 33 30.39 +01 59 27.0          18.2   EC066704
     K07C27C  C2007 02 13.37301 11 33 12.23 +01 58 51.5          18.9   EC066704
     K07C27C  C2007 02 13.38468 11 32 53.20 +01 58 14.2          18.8   EC066704
     K07C27C  C2007 02 13.39575 11 32 35.49 +01 57 39.0          19.2   EC066704
     K07C27C  C2007 02 13.40810 11 32 15.89 +01 57 00.5          18.7   EC066704
     K07C27C  C2007 02 14.06328 11 21 31.52 +01 30 09.7          18.9 V EC066595
     K07C27C  C2007 02 14.06514 11 21 29.96 +01 30 03.7          18.4 R EC066473
     K07C27C  C2007 02 14.06567 11 21 29.35 +01 30 04.1          19.1 V EC066595
     K07C27C  C2007 02 14.06644 11 21 28.77 +01 30 01.4          18.6 R EC066473
     K07C27C  C2007 02 14.06773 11 21 27.65 +01 29 59.7          18.7 R EC066473
     K07C27C  C2007 02 14.06806 11 21 27.23 +01 30 00.5          19.6 V EC066595

Observer details:
473 Remanzacco.  Observers L. Donato, V. Gonano, E. Guido, V. Santini,
    G. Sostero.  0.45-m f/4.4 Newtonian reflector + CCD.
595 Farra d'Isonzo.  Observers L. Bittesini, G. Lombardi, E. Pettarin,
    F. Piani.  Measurers G. Lombardi, E. Pettarin.  0.40-m f/4.5 reflector
    + CCD.
704 Lincoln Laboratory ETS, New Mexico.  Observers M. Bezpalko, D. Torres,
    R. Kracke, G. Spitz, J. Kistler.  Measurers J. Stuart, S. Scruggs.  1.0-m
    f/2.15 reflector + CCD.

Orbital elements:
2007 CC27                                                Earth MOID = 0.0011 AU
Epoch 2007 Apr. 10.0 TT = JDT 2454200.5                 MPC
M  44.83752              (2000.0)            P               Q
n   0.46536421     Peri.  124.95031     +0.01378543     -0.99967870
a   1.6492028      Node   324.24163     +0.90511854     +0.02151641
e   0.4795707      Incl.    2.08604     +0.42493575     -0.01339943
P   2.12           H   26.8           G   0.15           U   6
Residuals in seconds of arc
070213 704  0.2-  0.1-    070213 704  0.1-  0.1+    070214 473  0.2-  0.5-
070213 704  0.5+  0.1+    070214 595  0.1-  1.2+    070214 473  0.4+  0.0
070213 704  0.5-  0.0     070214 473  0.1+  0.5-    070214 595  0.1+  0.1+
070213 704  0.4+  0.1-    070214 595  0.3-  0.3-

Ephemeris:
2007 CC27                a,e,i = 1.65, 0.48, 2                   q = 0.8583
Date    TT    R. A. (2000) Decl.     Delta      r     Elong.  Phase     V
2007 02 09.0  22 22.52   +00 56.2    0.0155   0.972    20.7   159.0    28.3
2007 02 09.5  22 14.64   +01 16.7    0.0125   0.975    19.4   160.4    28.3
2007 02 10.0  22 01.43   +01 50.9    0.00950  0.978    17.9   161.9    28.3
2007 02 10.5  21 36.51   +02 53.7    0.00658  0.981    17.3   162.6    27.8
2007 02 11.0  20 35.25   +05 16.4    0.00382  0.983    24.7   155.2    24.2
2007 02 11.5  16 58.87   +09 46.9    0.00219  0.986    73.3   106.5    17.4
2007 02 12.0  13 14.01   +05 59.0    0.00372  0.989   126.9    52.9    16.6
2007 02 12.5  12 09.06   +03 33.8    0.00645  0.992   142.4    37.3    17.3
2007 02 13.0  11 43.69   +02 31.7    0.00938  0.995   148.5    31.2    18.0
2007 02 13.5  11 30.48   +01 58.7    0.0124   0.998   151.8    27.8    18.5
2007 02 14.0  11 22.41   +01 38.6    0.0154   1.001   154.0    25.6    18.9

2007 02 19    11 00.15   +00 48.6    0.0460   1.033   163.2    16.1    21.1
2007 02 24    10 55.15   +00 46.2    0.0774   1.065   168.6    10.5    22.0
2007 03 01    10 52.76   +00 51.9    0.110    1.100   172.8     6.5    22.7

Kyle E. Smalley              (C) Copyright 2007 MPC           M.P.E.C. 2007-C66

Read MPEC 2007-C65 Read MPEC 2007-C67


Our Web policy. Index to the CBAT/MPC/ICQ pages.


Valid HTML 4.01!